Hourly Data Report for January 06, 2018

All times are specified in Local Standard Time (LST). Add 1 hour to adjust for Daylight Saving Time where and when it is observed.

OTTAWA INTL A
ONTARIO

45°19'00.000" N
75°40'00.000" W
114.90 m
6106001
71628
YOW

Download Data

Hourly Data (January 2018)
Hourly Data Report for January 6, 2018
Temp Definition
°C
Dew Point Temp Definition
°C
Rel Hum Definition
%
Wind Dir Definition
10's deg

Wind Spd Definition
km/h
Visibility Definition
km
Stn Press Definition
kPa
Hmdx Definition


Wind Chill Definition


Weather Definition


TIME
00:00 -24.7 -30.2 61 29 30 9.7 100.05   -39 Snow,Blowing Snow
01:00 -25.2 -30.6 62 28 30 12.9 100.09   -39 Blowing Snow
02:00 -25.3 -31.0 60 28 39 16.1 100.16   -41 Blowing Snow
03:00 -25.5 -31.1 60 28 40 16.1 100.21   -41 Blowing Snow
04:00 -25.6 -31.0 61 28 30 16.1 100.26   -40 Blowing Snow
05:00 -25.6 -30.7 63 28 29 16.1 100.30   -40 Blowing Snow
06:00 -25.5 -30.6 63 28 32 16.1 100.38   -40 Blowing Snow
07:00 -25.5 -30.5 64 28 32 16.1 100.48   -40 Blowing Snow
08:00 -25.4 -30.4 64 29 34 24.1 100.57   -40 Blowing Snow
09:00 -25.1 -30.5 61 29 34 24.1 100.66   -40 Blowing Snow
10:00 -24.6 -30.4 59 29 37 24.1 100.78   -40 Blowing Snow
11:00 -24.2 -30.4 57 28 36 24.1 100.87   -39 Blowing Snow
12:00 -23.3 -30.0 55 29 35 24.1 100.92   -38 Blowing Snow
13:00 -23.1 -30.1 54 28 33 24.1 100.96   -37 Blowing Snow
14:00 -22.2 -29.3 53 27 24 24.1 101.03   -34 Blowing Snow
15:00 -21.3 -28.6 53 28 25 24.1 101.12   -33 Blowing Snow
16:00 -21.8 -28.9 54 27 25 24.1 101.23   -34 Blowing Snow
17:00 -21.9 -28.6 55 28 18 24.1 101.36   -32 LegendNANA
18:00 -21.8 -28.4 56 28 25 24.1 101.43   -34 LegendNANA
19:00 -21.8 -28.1 57 29 26 24.1 101.52   -34 Mainly Clear
20:00 -22.1 -28.4 58 30 16 24.1 101.60   -32 LegendNANA
21:00 -22.4 -28.3 59 29 21 24.1 101.67   -34 LegendNANA
22:00 -22.8 -28.6 60 29 23 24.1 101.70   -35 Clear
23:00 -23.2 -29.0 60 29 16 24.1 101.76   -33 LegendNANA

Notes on Data Quality.

Legend

  • E = Estimated
  • M = Missing
  • NA = Not Available
Date modified: